#timestamp,LO_Frequency,Hit,Temp,Hum 
1487696415.5,286046992.5,N,0.0,0.0
1487696435.3,286046992.5,N,0.0,0.0
1487696455.2,286046990.9,Y,0.0,0.0
1487696475.0,286046997.0,N,0.0,0.0
1487696475.9,286046997.0,N,0.0,0.0
1487696495.7,286046998.8,N,0.0,0.0
1487696515.6,286046995.0,N,0.0,0.0
1487696535.4,286046995.3,N,0.0,0.0
1487696555.3,286046988.8,Y,0.0,0.0
1487696575.1,286047003.8,N,0.0,0.0
1487696576.0,286047003.8,N,0.0,0.0
1487696595.8,286047000.1,N,0.0,0.0
1487696615.7,286046999.7,N,0.0,0.0
1487696635.5,286046998.3,N,0.0,0.0
1487696655.3,286046999.5,N,0.0,0.0
1487696675.1,286047000.5,N,0.0,0.0
1487696695.9,286046998.3,N,0.0,0.0
1487696715.7,286046996.9,N,0.0,0.0
1487696735.5,286046998.3,N,0.0,0.0
1487696755.4,286046998.8,N,0.0,0.0
1487696775.2,286046994.9,N,0.0,0.0
1487696795.1,286047000.4,N,0.0,0.0
1487696815.9,286047000.6,N,0.0,0.0
1487696835.7,286047000.8,N,0.0,0.0
1487696855.5,286047000.4,N,0.0,0.0
1487696875.4,286047000.9,N,0.0,0.0
1487696895.2,286047002.4,N,0.0,0.0
1487696915.0,286047000.3,N,0.0,0.0
1487696915.9,286047000.3,N,0.0,0.0
1487696935.8,286046998.2,N,0.0,0.0
1487696955.6,286046998.6,N,0.0,0.0
1487696975.4,286046998.7,N,0.0,0.0
1487696995.2,286046996.6,N,0.0,0.0
1487697015.8,286046997.3,N,0.0,0.0
1487697035.7,286046998.0,N,0.0,0.0
1487697055.5,286046996.8,N,0.0,0.0
1487697075.3,286046995.6,N,0.0,0.0
1487697095.2,286046997.6,N,0.0,0.0
1487697115.9,286046994.9,N,0.0,0.0
1487697135.7,286046993.7,N,0.0,0.0
1487697155.5,286046995.1,N,0.0,0.0
1487697175.4,286046996.2,N,0.0,0.0
1487697195.2,286046993.7,N,0.0,0.0
1487697215.0,286046995.7,N,0.0,0.0
1487697215.9,286046995.7,N,0.0,0.0
1487697235.8,286046994.9,N,0.0,0.0
1487697255.6,286046995.8,N,0.0,0.0
1487697275.4,286046993.5,N,0.0,0.0
1487697295.3,286046993.3,N,0.0,0.0
1487697315.1,286046995.6,N,0.0,0.0
1487697335.8,286046993.3,N,0.0,0.0
1487697355.7,286046993.6,N,0.0,0.0
1487697375.5,286046994.1,N,0.0,0.0
1487697395.3,286046992.2,Y,0.0,0.0
1487697415.2,286046995.0,N,0.0,0.0
1487697435.9,286046995.1,N,0.0,0.0
1487697455.7,286046996.0,N,0.0,0.0
1487697475.6,286046996.2,N,0.0,0.0
1487697495.4,286046997.4,N,0.0,0.0
1487697515.2,286046996.1,N,0.0,0.0
1487697535.1,286046993.5,Y,0.0,0.0
1487697536.0,286046993.5,Y,0.0,0.0
1487697555.8,286047001.3,N,0.0,0.0
1487697575.6,286047003.4,N,0.0,0.0
1487697595.5,286047003.0,N,0.0,0.0
1487697615.3,286047005.0,N,0.0,0.0
1487697635.1,286047003.1,N,0.0,0.0
1487697655.9,286047003.2,N,0.0,0.0
1487697675.7,286047003.1,N,0.0,0.0
1487697695.5,286047005.0,N,0.0,0.0
1487697715.4,286047004.9,N,0.0,0.0
1487697735.2,286047007.5,N,0.0,0.0
1487697755.0,286047007.5,N,0.0,0.0
1487697755.9,286047007.5,N,0.0,0.0
1487697775.8,286047006.9,N,0.0,0.0
1487697795.6,286047007.2,N,0.0,0.0
1487697815.4,286047007.6,N,0.0,0.0
1487697835.3,286047006.7,N,0.0,0.0
1487697855.1,286047006.7,N,0.0,0.0
1487697856.0,286047006.7,N,0.0,0.0
1487697875.8,286047008.4,N,0.0,0.0
1487697895.7,286047007.7,N,0.0,0.0
1487697915.5,286047010.1,N,0.0,0.0
1487697935.3,286047011.8,N,0.0,0.0
1487697955.2,286047012.2,N,0.0,0.0
1487697975.9,286047011.7,N,0.0,0.0
1487697995.7,286047011.9,N,0.0,0.0
1487698015.5,286047012.2,N,0.0,0.0
1487698035.4,286047012.1,N,0.0,0.0
1487698055.2,286047011.3,N,0.0,0.0
1487698075.0,286047011.9,N,0.0,0.0
1487698075.9,286047011.9,N,0.0,0.0
1487698095.8,286047013.1,N,0.0,0.0
1487698115.6,286047012.5,N,0.0,0.0
1487698135.5,286047015.4,Y,0.0,0.0
1487698155.3,286047009.0,N,0.0,0.0
1487698175.1,286047006.4,N,0.0,0.0
1487698195.8,286047007.2,N,0.0,0.0
1487698215.7,286047008.4,N,0.0,0.0
1487698235.5,286047008.0,N,0.0,0.0
1487698255.3,286047008.0,N,0.0,0.0
1487698275.2,286047010.3,Y,0.0,0.0
1487698295.0,286047003.0,N,0.0,0.0
1487698295.9,286047003.0,N,0.0,0.0
1487698315.8,286047004.9,N,0.0,0.0
1487698335.6,286047005.5,N,0.0,0.0
1487698355.4,286047003.6,N,0.0,0.0
1487698375.2,286047003.3,N,0.0,0.0
1487698395.1,286047004.1,N,0.0,0.0
1487698396.0,286047004.1,N,0.0,0.0
1487698415.8,286047001.8,N,0.0,0.0
1487698435.6,286047004.3,N,0.0,0.0
1487698455.5,286047005.8,N,0.0,0.0
1487698475.3,286047006.2,N,0.0,0.0
1487698495.1,286047007.2,N,0.0,0.0
1487698515.9,286047007.1,N,0.0,0.0
1487698535.7,286047006.8,N,0.0,0.0
1487698555.5,286047007.5,N,0.0,0.0
1487698575.4,286047006.3,N,0.0,0.0
1487698595.2,286047005.1,N,0.0,0.0
1487698615.0,286047005.1,N,0.0,0.0
1487698615.9,286047005.1,N,0.0,0.0
1487698635.8,286047009.1,N,0.0,0.0
1487698655.6,286047006.4,N,0.0,0.0
1487698675.4,286047010.3,Y,0.0,0.0
1487698695.3,286047003.8,N,0.0,0.0
1487698715.1,286047001.9,N,0.0,0.0
1487698735.8,286047001.3,N,0.0,0.0
1487698755.7,286047002.7,N,0.0,0.0
1487698775.5,286047004.1,N,0.0,0.0
1487698795.3,286047001.8,N,0.0,0.0
1487698815.2,286047002.5,N,0.0,0.0
1487698835.9,286047004.2,N,0.0,0.0
1487698855.7,286047003.2,N,0.0,0.0
1487698875.6,286047003.9,N,0.0,0.0
1487698895.4,286047002.3,N,0.0,0.0
1487698915.2,286047003.5,N,0.0,0.0
1487698935.0,286047005.7,N,0.0,0.0
1487698936.0,286047005.7,N,0.0,0.0
1487698955.8,286047005.7,N,0.0,0.0
1487698975.6,286047006.8,Y,0.0,0.0
1487698995.5,286047004.2,N,0.0,0.0
1487699015.3,286047005.9,N,0.0,0.0
1487699035.1,286047005.0,N,0.0,0.0
1487699055.9,286047005.4,N,0.0,0.0
1487699075.7,286047002.9,N,0.0,0.0
1487699095.5,286047004.7,N,0.0,0.0
1487699115.4,286047007.3,Y,0.0,0.0
1487699135.2,286047002.6,N,0.0,0.0
1487699155.0,286047002.1,N,0.0,0.0
1487699155.9,286047002.1,N,0.0,0.0
1487699175.8,286047001.5,N,0.0,0.0
1487699195.6,286047001.4,N,0.0,0.0
1487699215.4,286047002.1,N,0.0,0.0
1487699235.2,286047001.8,N,0.0,0.0
1487699255.1,286047005.8,N,0.0,0.0
1487699256.0,286047005.8,N,0.0,0.0
1487699275.8,286047005.1,N,0.0,0.0
1487699295.7,286047005.1,N,0.0,0.0
1487699315.5,286047003.0,N,0.0,0.0
1487699335.3,286046999.8,N,0.0,0.0
1487699355.1,286047000.5,N,0.0,0.0
1487699375.9,286047002.3,N,0.0,0.0
1487699395.7,286047002.0,N,0.0,0.0
1487699415.5,286047004.2,N,0.0,0.0
1487699435.4,286047005.3,N,0.0,0.0
1487699455.2,286047004.8,N,0.0,0.0
1487699475.0,286047004.7,N,0.0,0.0
1487699475.9,286047004.7,N,0.0,0.0
1487699495.8,286047003.0,N,0.0,0.0
1487699515.6,286047005.7,Y,0.0,0.0
1487699535.4,286047000.9,N,0.0,0.0
1487699555.3,286047001.0,N,0.0,0.0
1487699575.1,286047001.0,N,0.0,0.0
1487699595.8,286046999.7,N,0.0,0.0
1487699615.7,286046998.2,N,0.0,0.0
1487699635.5,286046996.5,N,0.0,0.0
1487699655.3,286047000.8,N,0.0,0.0
1487699675.2,286047000.4,N,0.0,0.0
1487699695.9,286047000.1,N,0.0,0.0
1487699715.7,286047002.2,N,0.0,0.0
1487699735.6,286047002.0,N,0.0,0.0
1487699755.4,286047004.1,N,0.0,0.0
1487699775.2,286047003.8,N,0.0,0.0
1487699795.0,286047005.6,N,0.0,0.0
1487699796.0,286047005.6,N,0.0,0.0
1487699815.8,286047004.8,N,0.0,0.0
1487699835.6,286047005.6,N,0.0,0.0
1487699855.5,286047004.3,N,0.0,0.0
1487699875.3,286047004.4,N,0.0,0.0
1487699895.1,286047007.0,Y,0.0,0.0
1487699915.9,286047003.2,N,0.0,0.0
1487699935.7,286047001.7,N,0.0,0.0
1487699955.5,286047002.4,N,0.0,0.0
1487699975.3,286047004.1,N,0.0,0.0
1487699995.2,286047003.2,N,0.0,0.0
